Weather History for Newton, KS

Change the Weather History Date:

Friday, March 21, 2014

  Actual Average Record
Temperature  
Mean Temperature 54 °F -  
Max Temperature 62 °F 55 °F 77 °F (1997)
Min Temperature 44 °F 34 °F 19 °F (2002)
Degree Days  
Heating Degree Days 11    
Growing Degree Days 4 (Base 50)    
Moisture  
Dew Point 26 °F    
Average Humidity 36    
Maximum Humidity 50    
Minimum Humidity 23    
Precipitation  
Precipitation 0.00 in - - ()
Sea Level Pressure  
Sea Level Pressure 29.90 in    
Wind  
Wind Speed 14 mph (NNE)    
Max Wind Speed 26 mph    
Max Gust Speed 33 mph    
Visibility 10 miles    
Events      
Averages and records for this station are not official NWS values.
T = Trace of Precipitation, MM = Missing Value Source: NWS Daily Summary

Daily Weather History Graph

Daily Weather History Graph

Search for Another Location

Airport:

Trip Planner

Search our weather history database for the weather conditions in past years. The results will help you decide how hot, cold, wet, or windy it might be!

Date:

Astronomy

Mar. 21, 2014 Rise Set
Actual Time 7:31 AM CDT 7:41 PM CDT
Civil Twilight 7:04 AM CDT 8:08 PM CDT
Nautical Twilight 6:34 AM CDT 8:39 PM CDT
Astronomical Twilight 6:02 AM CDT 9:10 PM CDT
Moon No Moon Rise 10:28 AM CDT (3/21)
Length of Visible Light 13h 03m
Length of Day
12h 10m
Waning Gibbous, 75% of the Moon is Illuminated
Mar 21
Waning Gibbous
Mar 23
Last Quarter
Mar 30
New
Apr 7
First Quarter
Apr 15
Full

Hourly Weather History & Observations

Time (CDT) Temp. Windchill Dew Point Humidity Pressure Visibility Wind Dir Wind Speed Gust Speed Precip Events Conditions
12:15 AM 51.8 °F - 26.6 °F 38% 29.88 in 10.0 mi South 10.4 mph - N/A   Clear
12:35 AM 51.8 °F - 26.6 °F 38% 29.87 in 10.0 mi South 10.4 mph - N/A   Clear
12:55 AM 51.8 °F - 26.6 °F 38% 29.86 in 10.0 mi South 10.4 mph - N/A   Clear
1:15 AM 51.8 °F - 26.6 °F 38% 29.85 in 10.0 mi SSE 9.2 mph - N/A   Clear
1:35 AM 50.0 °F - 26.6 °F 40% 29.84 in 10.0 mi SSE 9.2 mph - N/A   Clear
1:55 AM 51.8 °F - 26.6 °F 38% 29.84 in 10.0 mi SSE 9.2 mph - N/A   Clear
2:15 AM 51.8 °F - 26.6 °F 38% 29.83 in 10.0 mi SSE 11.5 mph 17.3 mph N/A   Clear
2:35 AM 48.2 °F - 26.6 °F 43% 29.82 in 10.0 mi SSE 11.5 mph - N/A   Clear
2:55 AM 48.2 °F - 26.6 °F 43% 29.81 in 10.0 mi SSE 11.5 mph - N/A   Clear
3:15 AM 48.2 °F - 26.6 °F 43% 29.79 in 10.0 mi SSE 11.5 mph - N/A   Clear
3:35 AM 46.4 °F 40.7 °F 26.6 °F 46% 29.77 in 10.0 mi SSE 12.7 mph - N/A   Clear
3:55 AM 46.4 °F 40.4 °F 26.6 °F 46% 29.75 in 10.0 mi SSE 13.8 mph - N/A   Clear
4:15 AM 48.2 °F - 26.6 °F 43% 29.74 in 10.0 mi SSE 12.7 mph - N/A   Clear
4:35 AM 50.0 °F - 26.6 °F 40% 29.73 in 10.0 mi SSE 12.7 mph - N/A   Clear
4:55 AM 51.8 °F - 26.6 °F 38% 29.72 in 10.0 mi SSE 15.0 mph 19.6 mph N/A   Clear
5:15 AM 51.8 °F - 26.6 °F 38% 29.71 in 10.0 mi South 16.1 mph 20.7 mph N/A   Clear
5:35 AM 51.8 °F - 26.6 °F 38% 29.72 in 10.0 mi South 17.3 mph - N/A   Clear
5:55 AM 51.8 °F - 26.6 °F 38% 29.72 in 10.0 mi South 15.0 mph - N/A   Clear
6:15 AM 51.8 °F - 28.4 °F 41% 29.71 in 10.0 mi South 16.1 mph 23.0 mph N/A   Clear
6:35 AM 51.8 °F - 26.6 °F 38% 29.71 in 10.0 mi South 13.8 mph - N/A   Clear
6:55 AM 51.8 °F - 28.4 °F 41% 29.72 in 10.0 mi South 15.0 mph - N/A   Clear
7:15 AM 51.8 °F - 28.4 °F 41% 29.72 in 10.0 mi South 11.5 mph - N/A   Clear
7:35 AM 50.0 °F - 28.4 °F 43% 29.73 in 10.0 mi South 11.5 mph - N/A   Clear
7:55 AM 50.0 °F - 28.4 °F 43% 29.74 in 10.0 mi South 10.4 mph - N/A   Clear
8:15 AM 50.0 °F - 28.4 °F 43% 29.76 in 10.0 mi SW 5.8 mph - N/A   Clear
8:35 AM 50.0 °F - 30.2 °F 47% 29.76 in 10.0 mi WSW 4.6 mph - N/A   Clear
8:55 AM 48.2 °F - 30.2 °F 50% 29.78 in 10.0 mi NW 5.8 mph - N/A   Clear
9:15 AM 50.0 °F - 30.2 °F 47% 29.79 in 10.0 mi NNW 4.6 mph - N/A   Clear
9:35 AM 50.0 °F - 30.2 °F 47% 29.81 in 10.0 mi North 6.9 mph - N/A   Clear
9:55 AM 51.8 °F - 30.2 °F 44% 29.81 in 10.0 mi North 9.2 mph - N/A   Clear
10:15 AM 51.8 °F - 30.2 °F 44% 29.82 in 10.0 mi North 9.2 mph - N/A   Clear
10:35 AM 51.8 °F - 30.2 °F 44% 29.83 in 10.0 mi North 10.4 mph - N/A   Clear
10:55 AM 53.6 °F - 30.2 °F 41% 29.84 in 10.0 mi North 16.1 mph 19.6 mph N/A   Clear
11:15 AM 53.6 °F - 30.2 °F 41% 29.85 in 10.0 mi North 18.4 mph 24.2 mph N/A   Clear
11:35 AM 55.4 °F - 30.2 °F 38% 29.86 in 10.0 mi North 23.0 mph 26.5 mph N/A   Clear
11:55 AM 55.4 °F - 26.6 °F 33% 29.88 in 10.0 mi North 21.9 mph 26.5 mph N/A   Clear
12:15 PM 55.4 °F - 26.6 °F 33% 29.89 in 10.0 mi North 23.0 mph 29.9 mph N/A   Clear
12:35 PM 55.4 °F - 26.6 °F 33% 29.90 in 10.0 mi North 23.0 mph 31.1 mph N/A   Clear
12:55 PM 57.2 °F - 28.4 °F 33% 29.90 in 10.0 mi North 24.2 mph 31.1 mph N/A   Clear
1:15 PM 59.0 °F - 28.4 °F 31% 29.91 in 10.0 mi North 26.5 mph 32.2 mph N/A   Clear
1:35 PM 59.0 °F - 28.4 °F 31% 29.92 in 10.0 mi North 24.2 mph 32.2 mph N/A   Clear
1:55 PM 57.2 °F - 28.4 °F 33% 29.92 in 10.0 mi NNE 24.2 mph 31.1 mph N/A   Clear
2:15 PM 60.8 °F - 28.4 °F 29% 29.93 in 10.0 mi North 21.9 mph 31.1 mph N/A   Clear
2:35 PM 60.8 °F - 30.2 °F 31% 29.93 in 10.0 mi North 24.2 mph 29.9 mph N/A   Clear
2:55 PM 62.6 °F - 30.2 °F 30% 29.93 in 10.0 mi North 25.3 mph 33.4 mph N/A   Clear
3:15 PM 62.6 °F - 28.4 °F 27% 29.93 in 10.0 mi North 21.9 mph 27.6 mph N/A   Clear
3:35 PM 62.6 °F - 28.4 °F 27% 29.93 in 10.0 mi North 20.7 mph 28.8 mph N/A   Clear
3:55 PM 62.6 °F - 28.4 °F 27% 29.94 in 10.0 mi North 23.0 mph 28.8 mph N/A   Clear
4:15 PM 62.6 °F - 26.6 °F 26% 29.95 in 10.0 mi North 17.3 mph 26.5 mph N/A   Clear
4:35 PM 62.6 °F - 26.6 °F 26% 29.95 in 10.0 mi North 19.6 mph 27.6 mph N/A   Clear
4:55 PM 62.6 °F - 24.8 °F 24% 29.96 in 10.0 mi North 20.7 mph 29.9 mph N/A   Clear
5:15 PM 60.8 °F - 24.8 °F 25% 29.96 in 10.0 mi North 16.1 mph - N/A   Clear
5:35 PM 60.8 °F - 24.8 °F 25% 29.97 in 10.0 mi North 18.4 mph 26.5 mph N/A   Clear
5:55 PM 60.8 °F - 23.0 °F 23% 29.98 in 10.0 mi North 16.1 mph - N/A   Clear
6:15 PM 60.8 °F - 23.0 °F 23% 29.99 in 10.0 mi North 18.4 mph 26.5 mph N/A   Clear
6:35 PM 59.0 °F - 21.2 °F 23% 30.00 in 10.0 mi North 18.4 mph 26.5 mph N/A   Clear
6:55 PM 57.2 °F - 21.2 °F 25% 30.01 in 10.0 mi North 17.3 mph - N/A   Clear
7:15 PM 57.2 °F - 21.2 °F 25% 30.02 in 10.0 mi North 15.0 mph 24.2 mph N/A   Clear
7:35 PM 55.4 °F - 21.2 °F 26% 30.03 in 10.0 mi North 12.7 mph - N/A   Clear
7:55 PM 53.6 °F - 21.2 °F 28% 30.04 in 10.0 mi North 9.2 mph - N/A   Clear
8:15 PM 53.6 °F - 21.2 °F 28% 30.05 in 10.0 mi North 11.5 mph - N/A   Clear
8:35 PM 53.6 °F - 21.2 °F 28% 30.05 in 10.0 mi North 12.7 mph - N/A   Clear
8:55 PM 51.8 °F - 21.2 °F 30% 30.07 in 10.0 mi North 10.4 mph - N/A   Clear
9:15 PM 50.0 °F - 21.2 °F 32% 30.08 in 10.0 mi North 10.4 mph - N/A   Clear
9:35 PM 50.0 °F - 21.2 °F 32% 30.09 in 10.0 mi North 12.7 mph - N/A   Clear
9:55 PM 48.2 °F - 21.2 °F 34% 30.10 in 10.0 mi North 13.8 mph - N/A   Clear
10:15 PM 48.2 °F - 21.2 °F 34% 30.12 in 10.0 mi North 16.1 mph 25.3 mph N/A   Clear
10:35 PM 48.2 °F - 21.2 °F 34% 30.13 in 10.0 mi NNE 17.3 mph 27.6 mph N/A   Clear
10:55 PM 48.2 °F - 23.0 °F 37% 30.15 in 10.0 mi North 20.7 mph 25.3 mph N/A   Clear
11:15 PM 46.4 °F 38.1 °F 24.8 °F 43% 30.16 in 10.0 mi NNE 24.2 mph 31.1 mph N/A   Clear
11:35 PM 46.4 °F 39.2 °F 24.8 °F 43% 30.17 in 10.0 mi NNE 18.4 mph 28.8 mph N/A   Clear
11:55 PM 44.6 °F 36.6 °F 24.8 °F 46% 30.17 in 10.0 mi North 19.6 mph 24.2 mph N/A   Clear